Weather History for KFFL - April, 2014

Change the Weather History Date:

Wednesday, April 9, 2014

  Actual Average Record
Temperature  
Mean Temperature 50 °F -  
Max Temperature 69 °F 59 °F 84 °F (1977)
Min Temperature 30 °F 35 °F 19 °F (1997)
Degree Days  
Heating Degree Days 16    
Moisture  
Dew Point 29 °F    
Average Humidity 50    
Maximum Humidity 93    
Minimum Humidity 18    
Precipitation  
Precipitation 0.00 in - - ()
Sea Level Pressure  
Sea Level Pressure 29.95 in    
Wind  
Wind Speed 10 mph (SW)    
Max Wind Speed 25 mph    
Max Gust Speed 34 mph    
Visibility 10 miles    
Events      
Averages and records for this station are not official NWS values.
T = Trace of Precipitation, MM = Missing Value Source: NWS Daily Summary

Daily Weather History Graph

Daily Weather History Graph

Search for Another Location

Airport or City:

Trip Planner

Search our weather history database for the weather conditions in past years. The results will help you decide how hot, cold, wet, or windy it might be!

Date:

Astronomy

Apr. 09, 2014 Rise Set
Actual Time 6:38 AM CDT 7:41 PM CDT
Civil Twilight 6:10 AM CDT 8:09 PM CDT
Nautical Twilight 5:36 AM CDT 8:43 PM CDT
Astronomical Twilight 5:01 AM CDT 9:18 PM CDT
Moon 2:27 PM CDT (4/9) 3:30 AM CDT (4/9)
Length of Visible Light 13h 59m
Length of Day
13h 03m
Waxing Gibbous, 72% of the Moon is Illuminated
Apr 9
Waxing Gibbous
Apr 15
Full
Apr 22
Last Quarter
Apr 29
New
May 6
First Quarter

Hourly Weather History & Observations

Time (CDT) Temp. Windchill Dew Point Humidity Pressure Visibility Wind Dir Wind Speed Gust Speed Precip Events Conditions
12:15 AM 37.4 °F 32.1 °F 32.0 °F 81% 30.04 in 10.0 mi NW 6.9 mph - N/A   Clear
12:35 AM 37.4 °F 32.1 °F 30.2 °F 75% 30.04 in 10.0 mi WNW 6.9 mph - N/A   Clear
12:55 AM 37.4 °F 32.8 °F 30.2 °F 75% 30.04 in 10.0 mi WNW 5.8 mph - N/A   Clear
1:15 AM 37.4 °F 32.8 °F 30.2 °F 75% 30.04 in 10.0 mi WNW 5.8 mph - N/A   Clear
1:35 AM 37.4 °F 32.8 °F 30.2 °F 75% 30.04 in 10.0 mi WNW 5.8 mph - N/A   Clear
1:55 AM 37.4 °F 32.1 °F 30.2 °F 75% 30.03 in 10.0 mi WNW 6.9 mph - N/A   Clear
2:15 AM 35.6 °F 30.7 °F 30.2 °F 81% 30.03 in 10.0 mi West 5.8 mph - N/A   Clear
2:35 AM 33.8 °F 27.7 °F 30.2 °F 87% 30.03 in 10.0 mi West 6.9 mph - N/A   Clear
2:55 AM 33.8 °F 27.7 °F 30.2 °F 87% 30.03 in 10.0 mi West 6.9 mph - N/A   Clear
3:15 AM 33.8 °F 27.7 °F 30.2 °F 87% 30.03 in 10.0 mi West 6.9 mph - N/A   Clear
3:35 AM 33.8 °F 27.7 °F 28.4 °F 81% 30.03 in 10.0 mi West 6.9 mph - N/A   Clear
3:55 AM 32.0 °F 26.4 °F 28.4 °F 87% 30.03 in 10.0 mi West 5.8 mph - N/A   Clear
4:15 AM 32.0 °F 26.4 °F 28.4 °F 87% 30.04 in 10.0 mi West 5.8 mph - N/A   Clear
4:35 AM 32.0 °F 25.6 °F 28.4 °F 87% 30.04 in 10.0 mi West 6.9 mph - N/A   Clear
4:55 AM 32.0 °F 25.6 °F 28.4 °F 87% 30.04 in 10.0 mi West 6.9 mph - N/A   Clear
5:15 AM 32.0 °F 27.5 °F 28.4 °F 87% 30.04 in 10.0 mi West 4.6 mph - N/A   Clear
5:35 AM 32.0 °F 25.6 °F 28.4 °F 87% 30.05 in 10.0 mi West 6.9 mph - N/A   Clear
5:55 AM 32.0 °F 25.6 °F 28.4 °F 87% 30.05 in 10.0 mi West 6.9 mph - N/A   Clear
6:15 AM 30.2 °F 23.4 °F 28.4 °F 93% 30.06 in 10.0 mi West 6.9 mph - N/A   Clear
6:35 AM 30.2 °F 23.4 °F 28.4 °F 93% 30.06 in 9.0 mi West 6.9 mph - N/A   Clear
6:55 AM 30.2 °F 23.4 °F 28.4 °F 93% 30.06 in 8.0 mi WSW 6.9 mph - N/A   Clear
7:15 AM 32.0 °F 26.4 °F 28.4 °F 87% 30.06 in 8.0 mi WSW 5.8 mph - N/A   Clear
7:35 AM 33.8 °F 28.6 °F 30.2 °F 87% 30.07 in 8.0 mi WSW 5.8 mph - N/A   Clear
7:55 AM 35.6 °F 30.7 °F 32.0 °F 87% 30.08 in 9.0 mi WSW 5.8 mph - N/A   Clear
8:15 AM 39.2 °F 35.0 °F 32.0 °F 75% 30.09 in 10.0 mi WSW 5.8 mph - N/A   Clear
8:35 AM 41.0 °F 36.4 °F 33.8 °F 76% 30.08 in 10.0 mi WSW 6.9 mph - N/A   Clear
8:55 AM 44.6 °F 41.4 °F 33.8 °F 66% 30.08 in 10.0 mi SW 5.8 mph - N/A   Clear
9:15 AM 46.4 °F 42.9 °F 33.8 °F 62% 30.08 in 10.0 mi SW 6.9 mph - N/A   Clear
9:35 AM 48.2 °F - 32.0 °F 54% 30.07 in 10.0 mi SW 8.1 mph - N/A   Clear
9:55 AM 50.0 °F - 32.0 °F 50% 30.07 in 10.0 mi SW 10.4 mph - N/A   Clear
10:15 AM 51.8 °F - 30.2 °F 44% 30.06 in 10.0 mi SW 10.4 mph - N/A   Clear
10:35 AM 53.6 °F - 30.2 °F 41% 30.05 in 10.0 mi SW 12.7 mph - N/A   Clear
10:55 AM 55.4 °F - 30.2 °F 38% 30.04 in - South 12.7 mph - N/A   Clear
11:15 AM 57.2 °F - 30.2 °F 36% 30.04 in 10.0 mi SSW 11.5 mph 19.6 mph N/A   Clear
11:35 AM 59.0 °F - 28.4 °F 31% 30.03 in 10.0 mi SSW 12.7 mph - N/A   Clear
11:55 AM 59.0 °F - 28.4 °F 31% 30.02 in 10.0 mi SSW 17.3 mph 24.2 mph N/A   Clear
12:15 PM 59.0 °F - 26.6 °F 29% 30.00 in 10.0 mi SSW 17.3 mph - N/A   Clear
12:35 PM 60.8 °F - 24.8 °F 25% 29.99 in 10.0 mi SSW 16.1 mph - N/A   Clear
12:55 PM 62.6 °F - 24.8 °F 24% 29.98 in 10.0 mi SSW 13.8 mph 26.5 mph N/A   Clear
1:15 PM 64.4 °F - 23.0 °F 21% 29.97 in 10.0 mi SSW 13.8 mph 23.0 mph N/A   Clear
1:35 PM 64.4 °F - 23.0 °F 21% 29.95 in 10.0 mi South 19.6 mph 26.5 mph N/A   Clear
1:55 PM 64.4 °F - 24.8 °F 22% 29.94 in 10.0 mi South 18.4 mph 24.2 mph N/A   Clear
2:15 PM 66.2 °F - 24.8 °F 21% 29.92 in 10.0 mi SSW 18.4 mph - N/A   Clear
2:35 PM 66.2 °F - 24.8 °F 21% 29.91 in 10.0 mi South 16.1 mph 25.3 mph N/A   Clear
2:55 PM 66.2 °F - 23.0 °F 19% 29.89 in 10.0 mi South 18.4 mph 26.5 mph N/A   Clear
3:15 PM 68.0 °F - 24.8 °F 20% 29.89 in 10.0 mi South 17.3 mph 26.5 mph N/A   Clear
3:35 PM 68.0 °F - 24.8 °F 20% 29.88 in 10.0 mi South 19.6 mph 28.8 mph N/A   Clear
3:55 PM 68.0 °F - 24.8 °F 20% 29.86 in 10.0 mi South 18.4 mph 26.5 mph N/A   Clear
4:15 PM 69.8 °F - 24.8 °F 18% 29.84 in 10.0 mi South 20.7 mph 28.8 mph N/A   Clear
4:35 PM 69.8 °F - 24.8 °F 18% 29.84 in 10.0 mi South 18.4 mph 29.9 mph N/A   Clear
4:55 PM 69.8 °F - 26.6 °F 20% 29.83 in 10.0 mi South 25.3 mph 34.5 mph N/A   Clear
5:15 PM 69.8 °F - 26.6 °F 20% 29.82 in 10.0 mi SSW 23.0 mph - N/A   Clear
5:35 PM 68.0 °F - 26.6 °F 21% 29.82 in 10.0 mi South 21.9 mph 27.6 mph N/A   Clear
5:55 PM 68.0 °F - 28.4 °F 23% 29.82 in 10.0 mi South 19.6 mph 27.6 mph N/A   Clear
6:15 PM 68.0 °F - 28.4 °F 23% 29.82 in 10.0 mi SSW 23.0 mph 29.9 mph N/A   Clear
6:35 PM 66.2 °F - 30.2 °F 26% 29.82 in 10.0 mi SSW 20.7 mph - N/A   Clear
6:55 PM 66.2 °F - 30.2 °F 26% 29.82 in 10.0 mi SSW 18.4 mph 26.5 mph N/A   Clear
7:15 PM 64.4 °F - 30.2 °F 28% 29.82 in 10.0 mi South 11.5 mph 20.7 mph N/A   Clear
7:35 PM 62.6 °F - 32.0 °F 32% 29.82 in 10.0 mi South 10.4 mph - N/A   Clear
7:55 PM 62.6 °F - 32.0 °F 32% 29.82 in 10.0 mi South 11.5 mph 18.4 mph N/A   Clear
8:15 PM 62.6 °F - 32.0 °F 32% 29.81 in 10.0 mi South 12.7 mph - N/A   Clear
8:35 PM 60.8 °F - 32.0 °F 34% 29.82 in 10.0 mi South 11.5 mph - N/A   Clear
8:55 PM 60.8 °F - 32.0 °F 34% 29.81 in 10.0 mi South 12.7 mph - N/A   Clear
9:15 PM 59.0 °F - 32.0 °F 36% 29.81 in 10.0 mi South 13.8 mph - N/A   Clear
9:35 PM 59.0 °F - 32.0 °F 36% 29.81 in 10.0 mi South 10.4 mph - N/A   Clear
9:55 PM 57.2 °F - 32.0 °F 38% 29.81 in 10.0 mi South 11.5 mph - N/A   Clear
10:15 PM 57.2 °F - 32.0 °F 38% 29.80 in 10.0 mi South 12.7 mph - N/A   Clear
10:35 PM 59.0 °F - 32.0 °F 36% 29.79 in 10.0 mi South 15.0 mph - N/A   Clear
10:55 PM 59.0 °F - 32.0 °F 36% 29.78 in 10.0 mi South 15.0 mph 23.0 mph N/A   Clear
11:15 PM 59.0 °F - 32.0 °F 36% 29.77 in 10.0 mi South 16.1 mph - N/A   Clear
11:35 PM 59.0 °F - 32.0 °F 36% 29.77 in 10.0 mi South 16.1 mph 23.0 mph N/A   Clear
11:55 PM 59.0 °F - 32.0 °F 36% 29.76 in 10.0 mi South 18.4 mph 24.2 mph N/A   Clear